Pierce City, MO

9:09 AM CDT on September 28, 2016 (GMT -0500)
Monett

Weather History for KHFJ - February, 2013

Change the Weather History Date:

Sunday, February 10, 2013

  Actual Average (KJLN) Record (KJLN)
Temperature  
Mean Temperature 46 °F 38 °F  
Max Temperature 55 °F 49 °F 77 °F (1999)
Min Temperature 37 °F 28 °F -9 °F (2011)
Degree Days  
Heating Degree Days 19 27  
Month to date heating degree days 277  
Since 1 July heating degree days 2826  
Cooling Degree Days 0 0  
Month to date cooling degree days 0  
Year to date cooling degree days 0  
Moisture  
Dew Point 37 °F    
Average Humidity 68    
Maximum Humidity 100    
Minimum Humidity 38    
Precipitation  
Precipitation 0.25 in 0.08 in 0.83 in (2009)
Month to date precipitation 0.72  
Year to date precipitation 2.75  
Sea Level Pressure  
Sea Level Pressure 29.74 in    
Wind  
Wind Speed 18 mph (SW)    
Max Wind Speed 29 mph    
Max Gust Speed 34 mph    
Visibility 9 miles    
Events Rain , Thunderstorm    
T = Trace of Precipitation, MM = Missing Value Source: NWS Daily Summary

Daily Weather History Graph

Daily Weather History Graph

Search for Another Location

Airport or City:

Trip Planner

Search our weather history database for the weather conditions in past years. The results will help you decide how hot, cold, wet, or windy it might be!

Date:

Astronomy

Feb. 10, 2013 Rise Set
Actual Time 7:09 AM CST 5:51 PM CST
Civil Twilight 6:42 AM CST 6:18 PM CST
Nautical Twilight 6:12 AM CST 6:48 PM CST
Astronomical Twilight 5:42 AM CST 7:18 PM CST
Moon 7:01 AM CST (2/10) 6:40 PM CST (2/10)
Length of Visible Light 11h 35m
Length of Day
10h 41m
New Moon, 0% of the Moon is Illuminated
Feb 10
New Moon
Feb 17
First Quarter
Feb 25
Full
Mar 4
Last Quarter
Mar 11
New

Hourly Weather History & Observations

Time (CST) Temp. Windchill Dew Point Humidity Pressure Visibility Wind Dir Wind Speed Gust Speed Precip Events Conditions
12:15 AM 37.4 °F 27.2 °F 37.4 °F 100% 29.80 in 7.0 mi SE 19.6 mph 27.6 mph N/A   Overcast
12:35 AM 39.2 °F 29.6 °F 37.4 °F 93% 29.79 in 7.0 mi SE 19.6 mph 27.6 mph N/A   Overcast
12:55 AM 39.2 °F 29.6 °F 37.4 °F 93% 29.77 in 7.0 mi SE 19.6 mph 25.3 mph N/A   Overcast
1:15 AM 39.2 °F 29.8 °F 37.4 °F 93% 29.76 in 7.0 mi SE 18.4 mph 25.3 mph N/A   Overcast
1:35 AM 41.0 °F 32.5 °F 37.4 °F 87% 29.75 in 7.0 mi SE 17.3 mph 21.9 mph N/A   Overcast
1:55 AM 41.0 °F 32.2 °F 39.2 °F 93% 29.74 in 7.0 mi SE 18.4 mph 24.2 mph N/A   Overcast
2:15 AM 41.0 °F 33.5 °F 41.0 °F 100% 29.71 in 7.0 mi SE 13.8 mph 23.0 mph N/A   Overcast
2:35 AM 42.8 °F 37.0 °F 41.0 °F 93% 29.74 in 7.0 mi SSE 10.4 mph - N/A   Overcast
2:55 AM 42.8 °F 37.5 °F 42.8 °F 100% 29.74 in 5.0 mi SSE 9.2 mph - N/A Thunderstorm Overcast
3:15 AM 42.8 °F 36.6 °F 42.8 °F 100% 29.72 in 2.5 mi SE 11.5 mph - 0.11 in Rain , Thunderstorm Heavy Thunderstorms and Rain
3:35 AM 42.8 °F 35.1 °F 42.8 °F 100% 29.70 in 3.0 mi SE 16.1 mph - 0.18 in Rain , Thunderstorm Light Thunderstorms and Rain
3:55 AM 44.6 °F 37.2 °F 44.6 °F 100% 29.66 in 4.0 mi SE 17.3 mph 23.0 mph 0.20 in Rain , Thunderstorm Thunderstorms and Rain
4:15 AM 44.6 °F 37.2 °F 44.6 °F 100% 29.66 in 4.0 mi SE 17.3 mph - N/A Thunderstorm Overcast
4:35 AM 44.6 °F 36.9 °F 44.6 °F 100% 29.64 in 5.0 mi SE 18.4 mph 23.0 mph N/A   Light Drizzle
4:55 AM 44.6 °F 37.8 °F 44.6 °F 100% 29.65 in 7.0 mi SE 15.0 mph - N/A   Overcast
5:15 AM 48.2 °F - 46.4 °F 93% 29.64 in 10.0 mi SSE 17.3 mph 24.2 mph N/A   Overcast
5:35 AM 50.0 °F - 46.4 °F 87% 29.64 in 10.0 mi SSE 18.4 mph 26.5 mph 0.01 in Rain Rain
5:55 AM 50.0 °F - 48.2 °F 94% 29.63 in 5.0 mi SSE 18.4 mph 29.9 mph 0.04 in Rain Light Rain
6:15 AM 50.0 °F - 48.2 °F 94% 29.62 in 10.0 mi SSE 17.3 mph 27.6 mph N/A   Overcast
6:35 AM 50.0 °F - 48.2 °F 94% 29.63 in 10.0 mi SSE 16.1 mph 21.9 mph N/A   Overcast
6:55 AM 50.0 °F - 48.2 °F 94% 29.62 in 10.0 mi SSE 16.1 mph 23.0 mph N/A   Overcast
7:15 AM 50.0 °F - 48.2 °F 94% 29.63 in 10.0 mi South 12.7 mph - N/A Rain Heavy Rain
7:35 AM 50.0 °F - 50.0 °F 100% 29.64 in 7.0 mi South 12.7 mph - N/A   Light Drizzle
7:55 AM 51.8 °F - 50.0 °F 94% 29.63 in 10.0 mi South 16.1 mph 20.7 mph N/A   Overcast
8:15 AM 51.8 °F - 50.0 °F 94% 29.64 in 10.0 mi South 17.3 mph - N/A   Overcast
8:35 AM 51.8 °F - 50.0 °F 94% 29.65 in 10.0 mi SSW 16.1 mph 20.7 mph N/A   Overcast
8:55 AM 51.8 °F - 50.0 °F 94% 29.65 in 10.0 mi SSW 16.1 mph - N/A   Overcast
9:15 AM 51.8 °F - 50.0 °F 94% 29.64 in 10.0 mi SSW 17.3 mph 23.0 mph N/A   Mostly Cloudy
9:35 AM 51.8 °F - 48.2 °F 88% 29.65 in 10.0 mi SW 18.4 mph 28.8 mph N/A   Scattered Clouds
9:55 AM 53.6 °F - 46.4 °F 77% 29.65 in 10.0 mi SW 20.7 mph 28.8 mph 0.01 in   Mostly Cloudy
10:15 AM 53.6 °F - 44.6 °F 72% 29.66 in 10.0 mi SW 20.7 mph 34.5 mph N/A   Mostly Cloudy
10:35 AM 53.6 °F - 42.8 °F 67% 29.66 in 10.0 mi SW 18.4 mph 27.6 mph N/A   Scattered Clouds
10:55 AM 53.6 °F - 39.2 °F 58% 29.65 in 10.0 mi SW 21.9 mph 29.9 mph N/A   Clear
11:15 AM 55.4 °F - 37.4 °F 51% 29.66 in 10.0 mi SW 23.0 mph 26.5 mph N/A   Clear
11:35 AM 53.6 °F - 35.6 °F 51% 29.66 in 10.0 mi WSW 20.7 mph 27.6 mph N/A   Clear
11:55 AM 55.4 °F - 35.6 °F 47% 29.66 in 10.0 mi SW 21.9 mph 25.3 mph N/A   Clear
12:15 PM 55.4 °F - 35.6 °F 47% 29.65 in 10.0 mi SW 21.9 mph 32.2 mph N/A   Clear
12:35 PM 55.4 °F - 33.8 °F 44% 29.65 in 10.0 mi SW 19.6 mph 32.2 mph N/A   Clear
12:55 PM 55.4 °F - 33.8 °F 44% 29.65 in 10.0 mi SW 26.5 mph 32.2 mph N/A   Clear
1:15 PM 55.4 °F - 32.0 °F 41% 29.65 in 10.0 mi WSW 24.2 mph 31.1 mph N/A   Clear
1:35 PM 55.4 °F - 32.0 °F 41% 29.65 in 10.0 mi WSW 23.0 mph 32.2 mph N/A   Clear
1:55 PM 55.4 °F - 32.0 °F 41% 29.66 in 10.0 mi WSW 23.0 mph 28.8 mph N/A   Clear
2:15 PM 55.4 °F - 32.0 °F 41% 29.66 in 10.0 mi WSW 20.7 mph 31.1 mph N/A   Clear
2:35 PM 55.4 °F - 32.0 °F 41% 29.67 in 10.0 mi SW 23.0 mph 29.9 mph N/A   Clear
2:55 PM 53.6 °F - 32.0 °F 44% 29.67 in 10.0 mi SW 23.0 mph 31.1 mph N/A   Clear
3:15 PM 55.4 °F - 32.0 °F 41% 29.68 in 10.0 mi SW 21.9 mph 32.2 mph N/A   Clear
3:35 PM 55.4 °F - 32.0 °F 41% 29.69 in 10.0 mi SW 21.9 mph 26.5 mph N/A   Clear
3:55 PM 55.4 °F - 30.2 °F 38% 29.69 in 10.0 mi WSW 23.0 mph 31.1 mph N/A   Clear
4:15 PM 55.4 °F - 30.2 °F 38% 29.70 in 10.0 mi SW 25.3 mph 34.5 mph N/A   Clear
4:35 PM 55.4 °F - 30.2 °F 38% 29.71 in 10.0 mi WSW 19.6 mph 27.6 mph N/A   Clear
4:55 PM 53.6 °F - 28.4 °F 38% 29.72 in 10.0 mi WSW 25.3 mph 33.4 mph N/A   Clear
5:15 PM 53.6 °F - 28.4 °F 38% 29.73 in 10.0 mi WSW 19.6 mph 26.5 mph N/A   Clear
5:35 PM 51.8 °F - 28.4 °F 41% 29.75 in 10.0 mi WSW 13.8 mph 23.0 mph N/A   Clear
5:55 PM 51.8 °F - 30.2 °F 44% 29.76 in 10.0 mi WSW 15.0 mph 21.9 mph N/A   Clear
6:15 PM 51.8 °F - 28.4 °F 41% 29.77 in 10.0 mi WSW 15.0 mph 26.5 mph N/A   Clear
6:35 PM 50.0 °F - 30.2 °F 47% 29.79 in 10.0 mi WSW 17.3 mph 21.9 mph N/A   Clear
6:55 PM 50.0 °F - 30.2 °F 47% 29.80 in 10.0 mi WSW 15.0 mph 20.7 mph N/A   Clear
7:15 PM 50.0 °F - 28.4 °F 43% 29.82 in 10.0 mi West 15.0 mph 21.9 mph N/A   Clear
7:35 PM 48.2 °F - 28.4 °F 46% 29.84 in 10.0 mi West 17.3 mph 24.2 mph N/A   Clear
7:55 PM 46.4 °F 40.1 °F 28.4 °F 50% 29.86 in 10.0 mi West 15.0 mph 24.2 mph N/A   Clear
8:15 PM 44.6 °F 34.9 °F 30.2 °F 57% 29.88 in 10.0 mi West 28.8 mph 34.5 mph N/A   Clear
8:35 PM 44.6 °F 38.1 °F 28.4 °F 53% 29.91 in 10.0 mi West 13.8 mph 24.2 mph N/A   Clear
8:55 PM 42.8 °F 33.5 °F 28.4 °F 57% 29.93 in 10.0 mi West 23.0 mph 31.1 mph N/A   Clear
9:15 PM 42.8 °F 34.0 °F 28.4 °F 57% 29.94 in 10.0 mi West 20.7 mph 25.3 mph N/A   Clear
9:35 PM 41.0 °F 31.9 °F 26.6 °F 57% 29.96 in 10.0 mi West 19.6 mph 27.6 mph N/A   Clear
9:55 PM 41.0 °F 33.1 °F 26.6 °F 57% 29.97 in 10.0 mi West 15.0 mph 21.9 mph N/A   Clear
10:15 PM 39.2 °F 32.0 °F 28.4 °F 65% 29.99 in 10.0 mi West 11.5 mph - N/A   Clear
10:35 PM 39.2 °F 30.5 °F 26.6 °F 61% 29.99 in 10.0 mi West 16.1 mph 23.0 mph N/A   Clear
10:55 PM 39.2 °F 31.2 °F 28.4 °F 65% 30.00 in 10.0 mi West 13.8 mph - N/A   Clear
11:15 PM 37.4 °F 29.8 °F 26.6 °F 65% 30.01 in 10.0 mi West 11.5 mph - N/A   Clear
11:35 PM 37.4 °F 30.8 °F 26.6 °F 65% 30.02 in 10.0 mi West 9.2 mph - N/A   Clear
11:55 PM 37.4 °F 30.3 °F 26.6 °F 65% 30.02 in 10.0 mi West 10.4 mph 17.3 mph N/A   Clear